sat.trackr.live / text

‹ back to catalog

LEMUR-2-STAS-GORBUK

NORAD 66686 · 2025-276W

PAYLOAD ACTIVE UNKNOWN

§ Identity

Operator
Country
US
Launch date
2025-11-28
Launch site
AFWTR
Launch vehicle
Mass (kg)
RCS (m²)

Purposes: earth_obs

External: N2YO · Heavens-Above · Gunter

§ Orbital elements

Epoch: 2026-09-20T03:18:11.307168Z

Period
94.72 min
Inclination
97.4162°
Eccentricity
0.0005793
Mean motion
15.20223798 rev/d
Perigee alt
501.2 km
Apogee alt
509.2 km
Semi-major
6,883.3 km
B*
1.6615e-4
RAAN
335.0975°
Arg perigee
40.5982°
Mean anomaly
319.5684°
Rev number
4,483

§ Raw data

LEMUR-2-STAS-GORBUK1 66686U 25276W   26263.13763087  .00003535  00000+0  16615-3 0  99952 66686  97.4162 335.0975 0005793  40.5982 319.5684 15.20223798 44831

JSON: /api/v1/satellites/66686 · /tle

For live sub-satellite position, see the globe view (requires WebGL).

§ Visibility from observer

Set your observer location to see the next 7 days of passes ≥ 10°. The values pass through the URL so the page stays shareable.

No JS? Fill the form by hand. The geolocation button needs JavaScript.